Tracking 27112 objects as of 28-Mar-2023
HD Live streaming from Space Station
objects crossing your sky now

DELTA 4 R/B

Track DELTA 4 R/B now!


NORAD ID: 37233
Int'l Code: 2010-063B
Perigee: 33,844.8 km
Apogee: 35,694.3 km
Inclination: 6.5 °
Period: 1,384.1 minutes
Semi major axis: 41140 km
RCS: Unknown
Launch date: November 21, 2010
Source: United States (US)
Launch site: AIR FORCE EASTERN TEST RANGE (AFETR)

Note: This is a ROCKET BODY
Your satellite tracking list
Your tracking list is empty




NASA's NSSDC Master Catalog

Two Line Element Set (TLE):
1 37233U 10063B   23085.69376680 -.00000153  00000-0  00000-0 0  9991
2 37233   6.5157 105.1513 0224776  18.9666 342.0307  1.04039377 14046
Source of the keplerian elements: McCants